STARLINK-1882, 46784

Orbit data source: Space-Track

STARLINK-1882, 46784 is a payload satellite owned by SpaceX/Seattle (US) in LEO that was launched on Sat, 24 Oct 2020 UTC via an FALCON 9 launch vehicle from the Air Force Eastern Test Range (AFETR). Payloads include a variety of satellites, spacecraft, and rockets equipped with specific instruments for various scientific and technological missions. These include communications satellites like Starlink; space stations such as the ISS; scientific satellites like the Hubble; Earth observation satellites from companies like Planet Labs, Umbra, and HawkEye 360; GPS; miniature CubeSats for education and research; and military/defense satellites.

Loading next visibility...
STARLINK-1882 details
Identifier
46784, 2020-074AX
Orbit
LEO
Last TLE update6 hours ago
Origin
Flag of USSpaceX/Seattle (US)
ManufacturerSpaceX/Seattle
MissionOperational Commercial Communications
Bus & MotorSTARLINK, Unknown motor
Mass260 kg wet, ~248 kg dry
Launch date (UTC)
2020-10-24 (4 years ago)
Launch vehicle
FALCON 9
Launch site
Air Force Eastern Test Range (AFETR)
Object type
Payload
Rocket body
Debris
Shape & HBRBox + 1 Pan, 8.86 m
Radar Cross Section13.562 m², Large (>1 m²)

Expand to show TLE details & history

TLE from 6 hours ago
0 STARLINK-1882
1 46784U 20074AX  24337.09148023  .00015638  00000-0  10658-2 0  9993
2 46784  53.0539 228.5285 0000724  98.9711 261.1360 15.06421439226752
Epoch: 2024-12-02T02:11Z
Definitive object data (Epoch: 2024-12-02T02:11:43.891Z)
Latitude-0.00004°
Longitude124.17528°
Altitude548.102 km
Speed7.589 km/s
True Right ascension15h 14m 06s
True Declination0° 00' 00"
Sunlit
Object was in daylight at TLE epoch
Visualization TLE readout
Latitude-39.69197°
Longitude84.65294°
Altitude560.601 km
Speed7.581 km/s
Apparent Right ascension15h 12m 16s
Apparent Declination-47° 44' 07"
Sunlit
Object is in daylight
Visualization observer readout
Local Sidereal Time06:06:04
Azimuth118.803° SE
Elevation-58.141°
Doppler factor1
Orbital elements
Apogee altitude547.918 km
Perigee altitude546.915 km
Semi-major axis6,925.554 km
Eccentricity0.0000724
Inclination53.0539°
RAAN228.5285°
Arg. of periapsis98.9711°
True anomaly261.1278°
Mean anomaly261.136°
Eccentric anomaly261.1319°
Mean motion3.76584 °/min
BSTAR0.0010658
Orbital period95.6 mins
Loading maneuver chart data...

STARLINK-1882 Visibility forecast

Observer location: undefined°, undefined

Span
Click to sort rows by Start time (UTC) header in descending order
Start Az.
Max El. time (UTC)
Max El. Az.
Max El.
End time (UTC)
End Az.
6 mins2024-12-02 19:54:51.754Z238.012° WSW2024-12-02 19:56:51.754Z279.679° WNW43.688°2024-12-02 20:00:51.754Z47.446° ENE
4 mins2024-12-02 21:35:51.754Z314.852° NW2024-12-02 21:36:51.754Z333.62° NNW18.356°2024-12-02 21:39:51.754Z24.281° NE
5 mins2024-12-03 00:56:51.754Z345.813° N2024-12-03 00:58:51.754Z25.553° NE21.1°2024-12-03 01:01:51.754Z75.027° E
6 mins2024-12-03 02:35:51.754Z306.04° NW2024-12-03 02:38:51.754Z182.845° SSW44.052°2024-12-03 02:41:51.754Z136.582° SSE
|